[[{"header":{"parameterUnit":"m.s-1","parameterCategory":1,"la1":30.2991,"la2":30.254,"lo1":-89.0895,"lo2":-89.0444,"dy":0.0017,"dx":0.0017,"nx":28,"ny":28,"refTime":"2023-10-28T03:00:00:Z","depth":0,"parameterNumber":2,"parameterNumberName":"U-component_of_WINDS"},"data":[0,0,0,0,0,0,0,0,0,0,0,0,0,0,0,0,0,0,0,0,0,0,0,0,0,0,0,0,0,0,0,0,0,0,0,0,0,0,0,0,0,0,0,0,0,0,0,0,0,0,0,0,0,0,0,0,0,0,-2.3116,-2.3115,0,-2.3005,-2.3004,-2.3002,-2.2832,-2.2829,-2.2826,-2.2823,-2.2709,-2.2709,-2.2709,0,0,0,0,0,0,0,0,0,0,0,0,0,-2.3186,-2.3186,-2.3117,-2.3115,-2.3114,-2.3005,-2.3004,-2.3002,-2.2833,-2.2829,-2.2825,-2.2822,-2.2709,-2.2709,-2.2709,0,0,0,0,0,0,0,0,0,0,0,0,0,-2.3124,-2.3186,-2.3117,-2.3016,-2.3006,-2.3006,-2.3004,-2.3002,-2.2833,-2.2829,-2.2824,-2.282,-2.271,-2.2709,-2.2709,-2.2798,0,0,-2.2708,-2.2708,0,0,0,0,0,0,0,0,-2.3127,-2.3121,-2.3032,-2.3023,-2.3012,-2.2928,-2.2986,-2.2934,-2.2834,-2.2899,-2.2823,-2.2818,-2.2786,-2.2779,-2.2768,-2.2793,-2.2788,-2.2708,-2.2708,-2.2708,-2.2708,0,0,0,0,0,0,0,-2.3132,-2.3125,-2.3072,-2.3031,-2.3019,-2.2978,-2.2964,-2.2976,-2.2869,-2.2893,-2.288,-2.2869,-2.2779,-2.2769,-2.2764,-2.2786,-2.2708,-2.2708,-2.2708,-2.2707,-2.2885,-2.2889,0,0,0,0,0,0,-2.3151,-2.313,-2.3076,-2.3069,-2.306,-2.298,-2.2965,-2.2959,-2.2869,-2.285,-2.2873,-2.2862,-2.2771,-2.2765,-2.2759,-2.2861,-2.2708,-2.2707,-2.2707,-2.288,-2.2886,-2.2891,0,0,0,0,0,0,-2.3153,-2.3148,-2.308,-2.3096,-2.3084,-2.2984,-2.2979,-2.296,-2.2949,-2.2854,-2.2834,-2.2882,-2.2768,-2.276,-2.2791,-2.2855,-2.2707,-2.2707,-2.2874,-2.2882,-2.2888,-2.3065,0,0,0,0,0,0,-2.3156,-2.315,-2.3181,-2.3098,-2.3084,-2.3113,-2.2983,-2.2961,-2.2949,-2.2932,-2.2857,-2.284,-2.2763,-2.2793,-2.2791,-2.2852,-2.2707,-2.2868,-2.2877,-2.2886,-2.3053,-2.3077,-2.3098,0,0,0,0,0,-2.3159,-2.3234,-2.3184,-2.3178,-2.3122,-2.3117,-2.3109,-2.302,-2.2954,-2.2986,-2.2927,-2.2842,-2.2848,-2.2797,-2.2794,-2.2856,-2.2863,-2.2875,-2.2885,-2.3042,-2.3072,-2.3097,0,0,0,0,0,0,-2.3326,-2.3221,-2.3164,-2.3214,-2.3176,-2.3088,-2.3125,-2.3053,-2.3033,-2.3018,-2.2908,-2.2893,-2.2939,-2.29,-2.2845,-2.294,-2.2843,-2.2854,-2.2964,-2.2991,-2.3014,-2.3023,-2.2707,0,0,0,0,0,-2.3369,-2.3373,-2.3281,-2.3335,-2.3319,-2.3227,-2.3221,-2.3156,-2.3112,-2.3095,-2.3036,-2.2998,-2.2991,-2.2989,-2.2977,-2.3046,-2.303,-2.3088,-2.3111,-2.313,-2.3141,-2.3179,-2.3205,-2.2927,-2.2927,-2.2927,0,0,-2.3457,-2.34,-2.3409,-2.3367,-2.333,-2.3339,-2.3214,-2.3227,-2.3233,-2.3096,-2.3123,-2.308,-2.303,-2.3082,-2.3102,-2.3051,-2.3214,-2.3144,-2.316,-2.316,-2.3193,-2.322,-2.3243,-2.2935,-2.2933,-2.2932,0,0,-2.3622,-2.3579,-2.3621,-2.3587,-2.3533,-2.3472,-2.3483,-2.3407,-2.3373,-2.3399,-2.3298,-2.3305,-2.3294,-2.3264,-2.3247,-2.3409,-2.3332,-2.3408,-2.3526,-2.3565,-2.3587,-2.3606,-2.3667,-2.369,-2.3419,-2.3419,-2.342,0,-2.3739,-2.3747,-2.3651,-2.3673,-2.3659,-2.3538,-2.3581,-2.3553,-2.3498,-2.3492,-2.3436,-2.3425,-2.3381,-2.3427,-2.3468,-2.3457,-2.3468,-2.3416,-2.3592,-2.361,-2.3626,-2.3683,-2.3706,-2.3429,-2.3428,-2.3427,-2.3426,0,-2.3895,-2.3903,-2.3944,-2.3896,-2.3887,-2.3919,-2.383,-2.3833,-2.377,-2.3716,-2.3746,-2.3691,-2.3669,-2.3675,-2.3612,-2.3713,-2.3684,-2.3612,-2.3512,-2.3664,-2.3716,-2.3737,-2.3443,-2.344,-2.3437,-2.3434,0,0,-2.4159,-2.4062,-2.4079,-2.4058,-2.3992,-2.3997,-2.4026,-2.4005,-2.4012,-2.3979,-2.4003,-2.4,-2.3934,-2.3916,-2.3849,-2.3883,-2.402,-2.3807,-2.3804,-2.3851,-2.4133,-2.419,-2.4216,-2.3969,-2.3972,-2.3975,-2.4138,0,-2.4314,-2.4357,-2.4274,-2.4338,-2.4347,-2.4234,-2.426,-2.4224,-2.4175,-2.4177,-2.4123,-2.4124,-2.4035,-2.4024,-2.4053,-2.3997,-2.4075,-2.3984,-2.3992,-2.3994,-2.401,-2.4242,-2.4301,-2.4457,-2.4158,-2.4161,-2.4163,0,-2.4498,-2.4478,-2.4544,-2.4479,-2.4479,-2.4504,-2.4481,-2.4483,-2.4441,-2.4404,-2.4387,-2.431,-2.4337,-2.4241,-2.4278,-2.4219,-2.4217,-2.4191,-2.4195,-2.4193,-2.4089,-2.425,-2.4504,-2.4529,-2.4193,-2.4191,-2.4189,0,-2.4689,-2.4678,-2.4717,-2.4702,-2.4626,-2.4647,-2.4617,-2.4571,-2.4565,-2.4546,-2.4542,-2.4525,-2.4517,-2.4507,-2.443,-2.4367,-2.4478,-2.4375,-2.445,-2.4453,-2.4479,-2.4479,-2.474,-2.4476,-2.4475,-2.4475,-2.4474,0,-2.487,-2.4916,-2.4802,-2.4826,-2.4876,-2.4781,-2.4833,-2.4791,-2.4752,-2.4768,-2.4669,-2.4687,-2.4582,-2.4589,-2.4529,-2.4572,-2.4568,-2.454,-2.4524,-2.455,-2.4554,-2.4549,-2.4537,-2.4481,-2.4479,-2.4478,-2.4477,0,-2.5091,-2.5017,-2.5052,-2.498,-2.4963,-2.5003,-2.4941,-2.4962,-2.4909,-2.4931,-2.493,-2.4847,-2.4851,-2.4773,-2.476,-2.472,-2.4791,-2.4753,-2.4805,-2.4794,-2.4876,-2.487,-2.5143,-2.5176,-2.489,-2.4893,-2.4895,0,-2.5213,-2.5246,-2.5178,-2.5182,-2.5157,-2.5165,-2.516,-2.507,-2.5069,-2.5028,-2.5055,-2.5051,-2.5042,-2.5054,-2.4994,-2.4985,-2.4949,-2.5045,-2.4947,-2.4974,-2.4954,-2.4954,-2.4959,-2.5067,-2.507,-2.5073,-2.5075,0,-2.5438,-2.5401,-2.5397,-2.5383,-2.5381,-2.5365,-2.5342,-2.5352,-2.5254,-2.5258,-2.5262,-2.5256,-2.5246,-2.5244,-2.5225,-2.5195,-2.5122,-2.5107,-2.5125,-2.5153,-2.5183,-2.5171,-2.4864,-2.5101,-2.5099,-2.5097,-2.5095,-2.5094,-2.5614,-2.564,-2.5598,-2.5599,-2.5574,-2.5557,-2.5574,-2.5525,-2.5526,-2.5511,-2.5458,-2.5473,-2.5435,-2.5402,-2.538,-2.5391,-2.5343,-2.5368,-2.5374,-2.5383,-2.54,-2.518,-2.5387,-2.5386,-2.5385,-2.5384,-2.5384,0,-2.5836,-2.5805,-2.5807,-2.5781,-2.5784,-2.5714,-2.5687,-2.5694,-2.5708,-2.5679,-2.5675,-2.5682,-2.5681,-2.5623,-2.5616,-2.5636,-2.5603,-2.5638,-2.5636,-2.5632,-2.544,-2.5427,-2.5666,-2.5666,-2.5666,-2.5666,-2.5666,-2.5666,-2.5953,-2.5995,-2.5954,-2.5984,-2.5952,-2.5965,-2.5957,-2.5942,-2.5919,-2.5932,-2.5932,-2.5894,-2.5854,-2.5845,-2.5843,-2.5826,-2.5829,-2.5877,-2.5849,-2.5672,-2.5644,-2.5618,-2.5606,-2.5878,-2.5878,-2.604,-2.6041,-2.6043]},{"header":{"parameterUnit":"m.s-1","parameterCategory":1,"la1":30.2991,"la2":30.254,"lo1":-89.0895,"lo2":-89.0444,"dy":0.0017,"dx":0.0017,"nx":28,"ny":28,"refTime":"2023-10-28T03:00:00:Z","depth":0,"parameterNumber":3,"parameterNumberName":"V-component_of_WINDS"},"data":[0,0,0,0,0,0,0,0,0,0,0,0,0,0,0,0,0,0,0,0,0,0,0,0,0,0,0,0,0,0,0,0,0,0,0,0,0,0,0,0,0,0,0,0,0,0,0,0,0,0,0,0,0,0,0,0,0,0,1.1457,1.1456,0,1.1357,1.1356,1.1355,1.1327,1.1328,1.1328,1.1329,1.1218,1.1215,1.1212,0,0,0,0,0,0,0,0,0,0,0,0,0,1.162,1.1617,1.1457,1.1456,1.1455,1.1357,1.1356,1.1354,1.1327,1.1328,1.1329,1.1329,1.122,1.1215,1.1211,0,0,0,0,0,0,0,0,0,0,0,0,0,1.1537,1.1616,1.1458,1.143,1.1426,1.1357,1.1356,1.1354,1.1327,1.1328,1.1329,1.133,1.1221,1.1216,1.1211,1.116,0,0,1.1195,1.1192,0,0,0,0,0,0,0,0,1.1542,1.1531,1.1435,1.1431,1.1427,1.1356,1.1372,1.1289,1.1327,1.1364,1.1329,1.133,1.1263,1.1254,1.1233,1.1155,1.115,1.1194,1.1191,1.1189,1.1187,0,0,0,0,0,0,0,1.1548,1.1535,1.1417,1.1434,1.1429,1.142,1.141,1.1356,1.1309,1.1361,1.1359,1.1348,1.1261,1.1238,1.123,1.1149,1.1194,1.119,1.1186,1.1184,1.1025,1.1024,0,0,0,0,0,0,1.1559,1.154,1.1421,1.1414,1.1488,1.1417,1.1405,1.1378,1.131,1.1301,1.1347,1.1347,1.1247,1.1237,1.1226,1.1164,1.1189,1.1184,1.1181,1.1026,1.1025,1.1024,0,0,0,0,0,0,1.1563,1.1549,1.1425,1.1477,1.146,1.1413,1.1383,1.1375,1.1353,1.13,1.129,1.1333,1.1247,1.1234,1.1178,1.1159,1.1181,1.1177,1.1028,1.1026,1.1025,1.1038,0,0,0,0,0,0,1.1567,1.155,1.1532,1.1477,1.1458,1.1379,1.1382,1.1373,1.1345,1.1343,1.1284,1.1275,1.1247,1.1186,1.1173,1.1153,1.1173,1.1029,1.1027,1.1025,1.1039,1.1037,1.1035,0,0,0,0,0,1.1573,1.1537,1.1531,1.1516,1.1434,1.1378,1.1367,1.1338,1.1343,1.1323,1.129,1.1277,1.1164,1.118,1.1165,1.1143,1.103,1.1028,1.1025,1.1039,1.1037,1.1035,0,0,0,0,0,0,1.1587,1.1529,1.1521,1.1467,1.1428,1.1374,1.1348,1.1336,1.1293,1.1293,1.1256,1.1243,1.119,1.1161,1.118,1.1092,1.1097,1.1091,1.1113,1.111,1.1108,1.1116,1.1168,0,0,0,0,0,1.1585,1.1547,1.1497,1.1454,1.1435,1.1395,1.137,1.1351,1.1308,1.1291,1.1253,1.121,1.1165,1.1136,1.1091,1.1035,1.1021,1.1012,1.1011,1.101,1.1005,1.0974,1.0969,1.1016,1.1016,1.1016,0,0,1.1578,1.1542,1.1519,1.1456,1.1424,1.1384,1.1381,1.1338,1.1308,1.1283,1.1229,1.12,1.115,1.1094,1.1067,1.1068,1.0989,1.1006,1.1006,1.1002,1.0971,1.0966,1.0963,1.1014,1.1015,1.1015,0,0,1.1545,1.1514,1.1475,1.1444,1.1397,1.1371,1.1362,1.131,1.129,1.1236,1.1218,1.118,1.1103,1.1068,1.1041,1.0998,1.0985,1.0984,1.0975,1.0945,1.0941,1.0938,1.0923,1.0918,1.098,1.098,1.098,0,1.1541,1.1483,1.1456,1.1415,1.1388,1.1368,1.1327,1.1297,1.1237,1.1218,1.122,1.1125,1.109,1.1026,1.1016,1.0994,1.0982,1.099,1.0944,1.0941,1.0937,1.0922,1.0917,1.098,1.098,1.098,1.098,0,1.1481,1.1441,1.1415,1.1361,1.133,1.129,1.1256,1.1228,1.1212,1.1186,1.1131,1.1089,1.1036,1.102,1.1002,1.0954,1.0956,1.0952,1.0956,1.0933,1.0919,1.0913,1.0981,1.0981,1.0981,1.0981,0,0,1.1452,1.1386,1.1377,1.1353,1.1301,1.1268,1.1227,1.1178,1.1156,1.1115,1.1079,1.1016,1.1013,1.0982,1.096,1.0935,1.0905,1.0934,1.0932,1.093,1.0849,1.0852,1.0846,1.0896,1.0895,1.0894,1.0853,0,1.1412,1.1341,1.1317,1.1257,1.1219,1.1201,1.1165,1.1128,1.1103,1.1065,1.1036,1.0993,1.0992,1.0973,1.0947,1.0914,1.0888,1.0916,1.0861,1.0859,1.0874,1.0839,1.0841,1.0805,1.0847,1.0846,1.0846,0,1.1356,1.1319,1.1256,1.1211,1.1194,1.1162,1.1117,1.1083,1.104,1.1024,1.0991,1.0973,1.0928,1.0936,1.0873,1.0893,1.0869,1.085,1.0848,1.0841,1.0851,1.083,1.0793,1.0787,1.0836,1.0837,1.0838,0,1.1342,1.1276,1.123,1.121,1.1155,1.1134,1.111,1.1069,1.1042,1.1002,1.0984,1.0938,1.0913,1.0877,1.0847,1.0855,1.0787,1.0792,1.0771,1.0772,1.0756,1.0758,1.0714,1.0742,1.0742,1.0742,1.0742,0,1.1301,1.1263,1.1224,1.1195,1.1153,1.1125,1.1083,1.1057,1.1021,1.0987,1.0967,1.0935,1.0897,1.0859,1.0835,1.0787,1.0775,1.076,1.0754,1.0761,1.0763,1.0744,1.0746,1.074,1.0741,1.0741,1.0741,0,1.1277,1.1249,1.1198,1.1153,1.114,1.1111,1.107,1.1042,1.1017,1.0974,1.0962,1.0922,1.0877,1.0844,1.0784,1.0768,1.0717,1.071,1.0732,1.0729,1.071,1.0712,1.0652,1.0643,1.0677,1.0677,1.0676,0,1.1252,1.1223,1.1176,1.1153,1.113,1.1092,1.1066,1.1038,1.1011,1.0963,1.094,1.0894,1.0856,1.0785,1.0749,1.0704,1.0696,1.0678,1.0689,1.0698,1.0696,1.0698,1.0695,1.0677,1.0676,1.0676,1.0676,0,1.1211,1.1199,1.1164,1.1124,1.1094,1.106,1.1026,1.1008,1.0973,1.0944,1.0899,1.087,1.0812,1.0766,1.0719,1.0691,1.0678,1.0674,1.0666,1.0673,1.0687,1.068,1.0728,1.0674,1.0675,1.0675,1.0675,1.0675,1.1185,1.116,1.1123,1.1085,1.1057,1.1026,1.0998,1.0971,1.0934,1.0887,1.0872,1.0826,1.0785,1.072,1.0693,1.0656,1.0656,1.0645,1.0642,1.064,1.0641,1.0694,1.0647,1.0647,1.0647,1.0647,1.0647,0,1.1144,1.112,1.1085,1.104,1.101,1.1003,1.0965,1.0939,1.09,1.0865,1.083,1.0779,1.0736,1.0698,1.0653,1.063,1.0623,1.0619,1.062,1.0615,1.0643,1.0654,1.0626,1.0626,1.0626,1.0626,1.0626,1.0626,1.1118,1.1075,1.106,1.1003,1.0978,1.0936,1.0915,1.0886,1.0859,1.0804,1.0769,1.0746,1.071,1.0663,1.0622,1.0612,1.0596,1.0595,1.0583,1.061,1.0612,1.0615,1.0625,1.0591,1.0591,1.0557,1.0557,1.0557]}]]